HAISI 1

导读 | 豆包AI

HAISI 1卫星是中国于2020年12月22日8时发射的卫星。作为中国航天领域的一颗重要航天器,它承载着特定科研或应用任务,入轨后按计划开展相关在轨测试与工作,持续为对应的观测、通信或科研等领域提供空间支持,是中国商业航天或特定航天领域发展进程中的组成部分。

基本信息
目录编号:
47297
目录名称:
HAISI 1
国际标识:
2020-102B
轨道中心:
EARTH
卫星名称:
HAISI 1
卫星全名:
--
卫星状态:
已陨落 最后检测时间 2024-09-05
发射日期:
2020-12-22 UTC
国别 :
中国 (CN)
星等 :
--
轨道信息
数据来源 国际轨道数据
星历时间: 2024-09-05T18:24:36+0800
轨道信息已过期626天
半长轴: 6507.841km
偏心率: 0.0013516
轨道倾角: 97.394°
近地点辐角 260.617°
升交点赤经 5.655°
平近点角 180.304°
近地点: 120.91km
远地点: 138.502km
周期: 87.079分钟
每日圈数: 16.536645
详细信息
使用方式:
暂无